Location: Lhota
(50.0887°N, 14.0116°E)
Time: 10:34:48
(UTC+00:00)

Cosmos-2242 - Pass Details

Date: 19 May 2025
Orbit: 569 x 594 km, 82.5° (Epoch: 23 June)

Event Time Altitude Azimuth Distance (km) Brightness Sun altitude
Exits shadow 19:51:25 - 175° (S) 2,391 5.6 -8.5°
Reaches altitude 10° 19:52:34 10° 172° (S) 1,927 5.1 -8.6°
Maximum altitude 19:56:44 55° 95° (E) 724 3.2 -9.1°
Drops below altitude 10° 20:00:55 10° 18° (NNE) 1,939 6.0 -9.5°
Sets 20:03:09 0° 14° (NNE) 2,843 7.0 -9.8°
